SCP
0 0 0 0 0 0 0 0 0 0 0 0 0 0 0 0 0 0 0 0 0 0 0 0 0 0 0 0 0 0 0 0 0 0 0 0 0 0 0 0 0 0 0
0 0 0 0 0 0 0 0 0 0 0 0 0 0 0 0 0 0 0 0 0 0 0 0 0 0 0 0 0 0 0 0 0 0 0 0 0 0 0 0 0 0 0
0 0 0 0 0 0 0 0 0 0 0 0 0 0 0 0 0 0 0 0 0 0 0 0 0 0 0 0 0 0 0 0 0 0 0 0 0 0 0 0 0 0 0
0 0 0 0 0 0 0 0 0 0 0 0 0 0 0 0 0 0 0 0 0 0 0 0 0 0 0 0 0 0 0 0 0 0 0 0 0 0 0 0 0 0 0
0 0 0 0 0 0 0 0 0 0 0 0 0 0 0 0 0 0 0 0 0 0 0 0 0 0 0 0 0 0 0 0 0 0 0 0 0 0 0 0 0 0 0
0 0 0 0 0 0 0 0 0 0 0 0 0 0 0 0 0 0 0 0 0 0 0 0 0 0 0 0 0 0 0 0 0 0 0 0 0 0 0 0 0 0 0
0 0 0 0 0 0 0 0 0 0 0 0 0 0 0 0 0 0 0 0 0 0 0 0 0 0 0 0 0 0 0 0 0 0 0 0 0 0 0 0 0 0 0
0 0 0 0 0 0 0 0 0 0 0 0 0 0 0 0 0 0 0 0 0 0 0 0 0 0 0 0 0 0 0 0 0 0 0 0 0 0 0 0 0 0 0
0 0 0 0 0 0 0 0 0 0 0 0 0 0 0 0 0 0 0 0 0 0 0 0 0 0 0 0 0 0 0 0 0 0 0 0 0 0 0 0 0 0 0
0 0 0 0 0 0 0 0 0 0 0 0 0 0 0 0 0 0 0 0 0 0 0 0 0 0 0 0 0 0 0 0 0 0 0 0 0 0 0 0 0 0 0
0 0 0 0 0 0 0 0 0 0 0 0 0 0 0 0 0 0 0 0 0 0 0 0 0 0 0 0 0 0 0 0 0 0 0 0 0 0 0 0 0 0 0
0 0 0 0 0 0 0 0 0 0 0 0 0 0 0 0 0 0 0 0 0 0 0 0 0 0 0 0 0 0 0 0 0 0 0 0 0 0 0 0 0 0 0
0 0 0 0 0 0 0 0 0 0 0 0 -0 -0 -0 0 0 0 0 0 0 0 0 0 0 0 0 0 0 0 0 0 0 0 0 0 0 0 0 0 0 0 0
0 0 0 0 0 0 0 0 0 0 0 0 0 -0 -0 -0 0 0 0 0 0 0 0 0 0 0 0 0 0 0 0 0 0 0 0 0 0 0 0 0 0 0 0
0 0 0 0 0 0 0 0 0 0 0 0 0 0 -0 -0 -0 0 0 0 0 0 0 0 0 0 0 0 0 0 0 0 0 0 0 0 0 0 0 0 0 0 0
0 0 0 0 0 0 0 0 0 0 0 0 0 0 0 -0 -0 0 0 0 0 0 0 0 0 0 0 0 0 0 0 0 0 0 0 0 0 0 0 0 0 0 0
0 0 0 0 0 0 0 0 0 0 0 0 0 0 0 0 0 0 0 0 0 0 0 0 0 0 0 0 0 0 0 0 0 0 0 0 0 0 0 0 0 0 0
0 0 0 0 0 0 0 0 0 0 0 0 0 0 0 0 0 0 0 0 0 0 0 0 0 0 0 0 0 0 0 0 0 0 0 0 0 0 0 0 0 0 0
0 0 0 0 0 0 0 0 0 0 0 0 0 0 0 0 0 0 0 0 0 0 0 0 0 0 0 0 0 0 0 0 0 0 0 0 0 0 0 0 0 0 0
0 0 0 0 0 0 0 0 0 0 0 0 0 0 0 0 0 0 0 0 0 0 0 0 0 0 0 0 0 0 0 0 0 0 0 0 0 0 0 0 0 0 0
0 0 0 0 0 0 0 0 0 0 0 0 0 0 0 0 0 0 0 0 0 0 0 0 0 0 0 0 0 0 0 0 0 0 0 0 0 0 0 0 0 0 0
0 0 0 0 0 0 0 0 0 0 0 0 0 0 0 0 0 0 0 0 0 0 0 0 0 0 0 0 0 0 0 0 0 0 0 0 0 0 0 0 0 0 0
0 0 0 0 0 0 0 0 0 0 0 0 0 0 0 0 0 0 0 0 0 0 0 0 0 0 0 0 0 0 0 0 0 0 0 0 0 0 0 0 0 0 0
0 0 0 0 0 0 0 0 0 0 0 0 0 0 0 0 0 0 0 0 0 0 0 0 0 0 0 0 0 0 0 0 0 0 0 0 0 0 0 0 0 0 0
0 0 0 0 0 0 0 0 0 0 0 0 0 0 0 0 0 0 0 0 0 0 0 0 0 0 0 0 0 0 0 0 0 0 0 0 0 0 0 0 0 0 0
0 0 0 0 0 0 0 0 0 0 0 0 0 0 0 0 0 0 0 0 0 0 0 0 0 0 0 0 0 0 0 0 0 0 0 0 0 0 0 0 0 0 0
Wind_Speed
1 2 6 7 7 8 8 8 9 9 10 10 10 11 11 11 11 11 11 10 10 9 9 9 9 9 8 8 8 8 8 8 8 7 7 7 7 6 6 6 5 3 5
5 3 7 7 7 8 8 9 9 9 9 10 10 10 10 10 10 10 10 10 9 9 9 8 8 8 8 8 7 7 7 7 7 7 7 6 6 6 6 6 5 3 5
6 4 6 8 8 8 8 9 9 9 9 9 10 10 10 10 10 10 10 9 9 9 8 8 8 8 8 7 7 7 7 7 7 7 6 3 3 6 6 6 5 5 5
7 4 5 8 8 8 9 9 9 9 10 10 9 9 9 9 9 9 9 9 8 8 8 7 7 7 7 7 7 7 7 7 7 7 4 3 3 6 7 6 6 6 6
6 4 6 9 9 9 9 9 9 9 9 9 9 9 9 9 9 9 9 8 8 8 7 7 6 6 6 7 7 7 7 8 8 7 4 4 3 6 7 7 7 7 6
6 4 6 9 9 9 9 9 9 9 9 9 9 9 9 9 9 9 9 8 8 7 7 6 6 6 7 7 8 7 8 9 7 4 4 3 3 7 8 8 7 7 7
6 4 5 9 9 9 9 9 9 9 9 9 9 8 9 9 9 9 8 8 7 7 6 6 6 6 7 7 7 8 8 9 6 4 3 3 4 8 8 7 7 7 7
7 5 5 8 9 9 9 9 9 9 9 9 9 8 8 8 8 8 8 7 7 6 6 5 5 5 6 7 7 8 9 8 7 5 4 3 6 8 8 8 7 7 7
6 5 3 3 5 8 9 9 9 9 9 9 8 7 7 8 8 7 7 7 6 6 5 5 4 5 5 6 8 9 10 10 5 3 5 3 7 8 8 8 7 7 7
5 4 3 2 2 3 4 7 8 8 7 7 7 6 6 6 6 6 5 5 5 5 4 4 4 5 5 7 8 10 11 8 5 4 2 4 8 8 8 8 7 7 7
5 3 3 3 2 2 2 4 5 5 5 5 4 4 4 2 2 2 3 4 4 4 4 4 5 6 7 8 9 10 8 3 4 3 2 6 8 8 8 8 8 7 7
6 4 3 4 4 3 3 2 1 1 1 1 1 1 1 1 1 1 1 2 3 4 4 5 5 5 6 4 6 7 3 4 3 3 3 8 9 9 8 8 8 8 7
6 6 5 5 4 3 2 2 1 0 1 1 1 1 1 1 1 1 1 2 2 4 3 4 4 3 3 3 3 3 4 3 2 3 4 9 10 9 9 8 8 8 8
6 5 5 6 4 3 3 2 2 1 1 1 1 2 2 1 1 1 1 1 1 1 2 2 2 3 3 4 5 5 4 3 3 2 4 10 10 10 10 9 9 9 9
7 6 5 6 5 3 3 2 2 1 1 1 1 2 3 2 2 1 1 1 1 2 2 2 3 4 4 4 4 5 5 4 4 4 3 9 10 11 11 10 10 10 11
7 6 5 6 5 4 3 2 2 2 2 2 1 2 3 3 2 2 2 2 2 2 2 3 3 4 4 4 5 5 4 3 4 4 3 5 9 10 11 12 12 12 12
7 6 6 6 5 5 4 3 3 2 2 2 1 2 3 3 3 3 2 2 2 2 3 3 4 3 4 4 5 4 3 3 4 3 3 3 4 8 11 12 13 13 14
7 7 6 6 6 5 4 3 2 2 3 2 1 2 3 3 4 3 3 2 2 3 3 3 3 4 4 4 3 3 3 3 4 3 3 3 3 3 7 11 12 13 14
7 7 6 6 6 5 4 3 3 3 2 2 2 2 2 3 3 3 3 2 3 3 3 3 3 3 3 3 3 3 3 3 3 4 4 3 3 3 3 6 10 12 13
7 7 7 6 5 5 4 3 3 3 2 2 2 2 2 3 4 4 3 3 3 3 3 3 3 3 3 2 4 4 3 3 3 3 3 2 3 3 4 4 4 6 12
7 7 7 6 4 4 3 3 3 2 1 1 1 2 3 3 3 4 3 3 3 3 3 4 3 3 2 2 3 3 4 4 4 3 2 3 3 3 4 4 4 4 5
8 7 7 7 5 4 3 3 3 3 2 1 1 2 2 3 3 3 4 3 3 3 4 3 3 2 1 1 2 3 2 4 4 4 3 3 3 3 4 5 4 5 4
9 9 8 7 6 5 4 3 3 3 2 2 2 1 1 3 3 3 3 3 3 3 3 3 3 3 1 1 1 3 3 1 1 3 3 3 3 3 3 3 4 4 5
10 9 8 7 6 5 6 6 5 4 2 2 1 0 1 2 3 3 3 3 3 3 3 2 3 2 3 1 1 1 2 3 3 1 3 3 4 4 3 3 3 4 4
9 8 8 8 6 5 5 6 6 3 2 2 2 2 1 2 2 3 3 3 3 2 3 2 3 2 2 2 1 1 2 2 2 3 1 2 3 3 3 2 2 2 3
7 7 8 8 6 5 5 6 6 6 4 4 3 2 1 1 1 2 3 3 3 2 2 2 3 3 2 2 2 2 2 2 2 2 3 1 1 2 2 2 2 2 2
Wind_Direction
143 162 124 118 110 107 104 103 105 107 102 98 95 94 93 92 92 92 92 90 86 84 83 79 79 79 77 74 72 73 74 75 77 77 78 77 76 79 79 78 75 77 80
151 145 124 120 115 111 109 106 105 106 103 100 97 96 96 95 94 93 92 90 87 85 84 79 75 76 74 71 68 67 68 68 70 71 74 72 72 75 74 74 75 77 76
133 127 121 123 118 113 110 107 106 107 106 104 100 98 98 97 97 95 92 90 88 85 82 78 72 72 71 67 63 64 67 69 72 70 69 53 58 69 71 71 73 71 70
128 124 123 122 117 113 111 107 107 111 112 109 104 102 100 98 98 97 95 91 87 83 81 78 72 67 65 61 58 63 68 72 77 72 63 50 51 69 68 70 70 69 66
121 121 126 121 117 113 109 107 107 109 111 110 107 103 100 97 98 100 98 95 90 86 82 77 74 67 62 57 57 61 68 75 79 69 62 52 48 69 70 68 65 67 64
121 121 128 123 120 114 110 109 107 109 111 111 109 104 103 101 103 103 99 96 92 88 84 80 74 65 59 58 58 57 69 80 77 61 57 51 49 68 69 64 61 61 58
127 126 129 127 125 121 118 114 110 111 114 113 112 109 106 102 100 99 98 96 94 90 87 83 77 68 63 59 58 62 77 87 80 63 56 47 57 69 67 63 61 59 54
137 133 129 132 131 127 125 123 118 116 119 118 116 112 109 108 105 101 100 98 97 94 89 84 77 73 70 62 62 71 82 84 79 71 57 46 62 66 64 62 60 54 50
133 132 127 131 132 133 131 129 126 125 124 121 121 122 119 115 110 107 108 105 99 96 92 81 69 67 67 63 68 76 79 80 68 55 62 53 68 66 61 59 55 50 47
129 135 136 133 123 127 133 137 137 135 133 129 127 126 123 117 112 114 112 111 103 95 83 76 70 63 64 68 74 78 79 73 57 48 42 64 70 67 62 58 53 48 45
143 152 156 153 147 148 162 150 143 145 143 135 128 124 107 87 89 106 119 121 102 89 72 69 67 64 62 64 70 78 78 66 57 46 38 67 70 67 62 56 53 48 42
159 173 176 175 177 172 171 133 117 128 129 117 118 122 109 114 135 125 107 104 87 76 67 64 60 56 55 54 65 75 74 72 58 45 54 66 67 65 60 56 53 49 43
164 167 175 181 181 175 164 156 144 121 128 134 156 146 121 94 73 69 56 40 44 53 43 45 43 47 60 71 76 81 83 77 60 46 52 64 62 60 58 56 53 48 44
151 159 165 171 166 169 158 159 154 141 142 155 182 157 128 116 113 103 80 66 59 56 54 47 58 61 71 82 92 87 81 75 62 50 52 62 59 57 56 56 55 50 47
153 158 163 162 156 150 144 149 141 147 152 147 133 132 135 131 136 128 108 101 96 88 80 70 73 78 78 77 89 88 85 84 73 57 45 59 61 55 53 54 56 51 46
157 157 160 149 145 134 129 133 136 140 129 115 109 124 133 134 132 114 99 97 95 100 97 91 87 84 79 80 81 82 85 89 81 71 50 47 55 55 51 50 50 49 47
158 152 150 141 131 125 121 118 122 130 115 95 89 102 115 120 122 114 107 97 93 97 91 84 73 74 80 78 75 76 74 75 82 77 63 41 35 49 51 50 49 47 45
154 149 147 137 127 122 119 110 113 117 108 94 86 89 105 110 115 105 101 99 104 93 88 90 83 79 72 74 73 67 64 66 71 76 68 51 34 35 42 50 51 48 46
157 147 141 134 133 132 125 115 110 104 97 88 77 81 102 109 108 109 103 106 107 92 86 97 84 93 90 86 85 64 49 54 56 74 70 57 43 37 29 42 46 46 44
155 145 143 139 136 128 113 97 86 77 71 73 79 81 90 100 108 109 104 100 99 95 85 91 91 78 88 94 83 62 36 36 45 55 65 57 49 52 43 38 29 32 41
153 149 148 144 141 131 121 120 116 114 97 71 75 84 84 94 102 100 103 98 99 104 109 111 99 82 70 84 81 53 24 28 40 39 46 53 49 50 50 43 36 28 26
163 160 155 152 149 143 139 141 141 139 130 122 80 69 77 92 97 107 109 113 112 109 101 95 102 97 71 83 109 94 39 9 10 24 32 52 45 43 50 53 43 39 31
167 169 164 158 150 145 135 114 99 78 65 52 47 37 44 96 102 103 114 115 116 119 124 120 118 118 120 18 99 133 135 182 331 358 17 32 35 40 38 41 45 38 39
173 169 158 154 150 145 133 128 134 135 145 173 164 131 59 84 96 98 104 109 117 118 123 136 125 124 123 93 30 68 142 153 141 61 357 12 27 36 33 45 42 38 37
165 161 155 150 147 144 138 140 138 138 150 145 119 107 70 44 77 98 110 109 112 117 125 119 112 112 122 131 119 96 79 77 99 129 118 357 12 12 22 30 36 30 27
151 148 151 151 151 153 148 147 147 153 151 140 137 134 111 49 43 87 110 107 112 117 126 129 124 121 115 108 106 114 129 127 138 129 135 132 44 350 10 17 21 14 19